Flag for Norway Weather past 2 weeks in Hammerfest, Norway

Now
52 °F

Fog.


Feels Like: 49 °F
Forecast: 44 / 52 °F
Wind: 7 mph from Northeast

Location: Hammerfest

Current Time: Jul 28, 2014 at 12:56:25 PM

Latest Report: Jul 28, 2014 at 11:50 AM


Visibility: N/A

Pressure: 29.89 "Hg

Humidity: 94%

Dew point: 50 °F

Location of HammerfestLocation

Historic Weather in Hammerfest — Graph

°F

Hammerfest temperature yesterday

Maximum temperature yesterday: 66 °F (at 1:50 PM)
Minimum temperature yesterday: 52 °F (at 12:50 AM)
Average temperature yesterday: 58 °F

Past Weeks' High & Low Weather Summary

 TemperatureHumidityPressure
High70 °F (Jul 15, 12:50 PM)100% (Jul 17, 7:50 PM)30.30 "Hg (Jul 17, 7:50 PM)
Low46 °F (Jul 18, 11:50 PM)56% (Jul 15, 7:50 PM)29.83 "Hg (Jul 15, 3:50 PM)
Average56 °F84%30.09 "Hg
* Reported Jul 13 11:50 AM — Jul 28 11:50 AM, Hammerfest, Weather by CustomWeather, © 2014

Note: Actual official high and low records may vary slightly from our data, if they occured in-between our weather recording intervals... More about our weather records

Advertising

Hammerfest weather history for previous 24 hours

 ConditionsComfort  
Time TempWeatherWind HumidityBarometerVisibility
11:50 AM
Jul 28
52 °FFog.7 mph94%29.89 "HgN/A
10:50 AM52 °FBroken clouds.6 mph94%29.89 "HgN/A
9:50 AM52 °FFog.7 mph94%29.89 "Hg5 mi
8:50 AM50 °FFog.7 mph100%29.89 "Hg6 mi
7:50 AM50 °FDrizzle. Fog.9 mph100%29.89 "HgN/A
6:50 AM52 °FRain showers. Broken clouds.7 mph94%29.89 "Hg2 mi
5:50 AM52 °FFog.7 mph94%29.89 "Hg1 mi
4:50 AM52 °FPartly sunny.3 mph94%29.89 "Hg1 mi
3:50 AM52 °FSnow. Fog.3 mph100%29.89 "HgN/A
2:50 AM52 °FFog.7 mph94%29.89 "Hg2 mi
1:50 AM52 °FFog.2 mph100%29.89 "Hg2 mi
12:50 AM52 °FFog.6 mph100%29.86 "Hg1 mi
11:50 PM
Jul 27
55 °FFog.3 mph94%29.86 "Hg1 mi
10:50 PM54 °FSunny.2 mph100%29.89 "Hg10 mi
9:50 PM57 °FCool.5 mph88%29.89 "HgN/A
8:50 PM57 °FFog.7 mph88%29.89 "HgN/A
7:50 PM59 °FFog.10 mph82%29.92 "HgN/A
6:50 PM59 °FSunny.12 mph82%29.92 "Hg10 mi
5:50 PM61 °FSunny.10 mph77%29.92 "Hg10 mi
4:50 PM61 °FSunny.12 mph77%29.95 "Hg10 mi
3:50 PM66 °FSunny.1 mph64%29.95 "Hg10 mi
2:50 PM66 °FSunny.6 mph64%29.98 "Hg10 mi
1:50 PM66 °FPassing clouds.5 mph64%29.98 "HgN/A
12:50 PM64 °FBroken clouds.3 mph68%30.01 "HgN/A
Weather by CustomWeather, © 2014

See weather overviewHow to use our weather pages